TimeEST,TemperatureF,Dew PointF,Humidity,Sea Level PressureIn,VisibilityMPH,Wind Direction,Wind SpeedMPH,Gust SpeedMPH,PrecipitationIn,Events,Conditions,WindDirDegrees,DateUTC
12:15 AM,33.8,23.0,65,30.10,-9999.0,NE,6.9,-,N/A,,Clear,40,2012-11-07 05:15:00
12:35 AM,33.8,23.0,65,30.09,-9999.0,NE,6.9,-,N/A,,Clear,40,2012-11-07 05:35:00
12:55 AM,33.8,23.0,65,30.07,-9999.0,NNE,8.1,-,N/A,,Clear,30,2012-11-07 05:55:00
1:15 AM,33.8,23.0,65,30.08,-9999.0,NNE,6.9,-,N/A,,Clear,30,2012-11-07 06:15:00
1:35 AM,33.8,23.0,65,30.08,-9999.0,NE,5.8,-,N/A,,Clear,40,2012-11-07 06:35:00
1:55 AM,33.8,23.0,65,30.07,-9999.0,NE,9.2,-,N/A,,Clear,50,2012-11-07 06:55:00
2:15 AM,33.8,24.8,70,30.04,-9999.0,NE,8.1,-,N/A,,Clear,40,2012-11-07 07:15:00
2:35 AM,33.8,24.8,70,30.03,-9999.0,NE,10.4,16.1,N/A,,Clear,40,2012-11-07 07:35:00
2:55 AM,33.8,26.6,75,30.02,-9999.0,NE,6.9,-,N/A,,Clear,40,2012-11-07 07:55:00
3:15 AM,33.8,26.6,75,30.00,-9999.0,NE,8.1,-,N/A,,Partly Cloudy,40,2012-11-07 08:15:00
3:35 AM,33.8,26.6,75,30.00,-9999.0,NE,8.1,-,N/A,,Clear,40,2012-11-07 08:35:00
7:35 AM,37.4,28.4,70,29.94,-9999.0,NE,12.7,23.0,N/A,,Clear,40,2012-11-07 12:35:00
7:55 AM,37.4,28.4,70,29.93,-9999.0,NE,13.8,25.3,N/A,,Clear,40,2012-11-07 12:55:00
8:15 AM,37.4,30.2,75,29.93,-9999.0,NNE,10.4,27.6,N/A,,Scattered Clouds,30,2012-11-07 13:15:00
8:35 AM,37.4,30.2,75,29.92,-9999.0,NNE,15.0,23.0,N/A,,Scattered Clouds,30,2012-11-07 13:35:00
8:55 AM,39.2,30.2,70,29.92,-9999.0,NE,12.7,23.0,N/A,,Mostly Cloudy,50,2012-11-07 13:55:00
9:15 AM,39.2,30.2,70,29.91,-9999.0,NE,13.8,26.5,N/A,Rain,Light Rain,40,2012-11-07 14:15:00
9:35 AM,39.2,30.2,70,29.91,-9999.0,NE,13.8,25.3,N/A,Rain,Light Rain,40,2012-11-07 14:35:00
9:55 AM,35.6,32.0,87,29.89,-9999.0,NE,16.1,26.5,0.09,,Unknown,40,2012-11-07 14:55:00
10:15 AM,35.6,32.0,87,29.88,-9999.0,NNE,18.4,25.3,0.03,Snow,Light Snow,30,2012-11-07 15:15:00
10:35 AM,35.6,32.0,87,29.88,-9999.0,NE,13.8,23.0,0.13,Snow,Light Snow,40,2012-11-07 15:35:00
10:55 AM,35.6,32.0,87,29.86,-9999.0,NE,10.4,17.3,0.34,Snow,Snow,50,2012-11-07 15:55:00
11:15 AM,33.8,32.0,93,29.84,-9999.0,NNE,15.0,21.9,0.41,Snow,Light Snow,30,2012-11-07 16:15:00
11:35 AM,33.8,33.8,100,29.84,-9999.0,NNE,15.0,20.7,0.55,,Overcast,30,2012-11-07 16:35:00
11:55 AM,33.8,32.0,93,29.82,-9999.0,NE,10.4,21.9,0.70,Rain,Rain,40,2012-11-07 16:55:00
12:15 PM,33.8,32.0,93,29.81,-9999.0,NNE,15.0,24.2,N/A,Rain,Light Rain,30,2012-11-07 17:15:00
12:35 PM,33.8,32.0,93,29.81,-9999.0,NNE,18.4,27.6,0.02,Rain,Light Rain,30,2012-11-07 17:35:00
12:55 PM,35.6,32.0,87,29.80,-9999.0,NNE,16.1,24.2,0.04,,Unknown,30,2012-11-07 17:55:00
1:15 PM,35.6,32.0,87,29.78,-9999.0,NNE,18.4,31.1,0.04,,Unknown,30,2012-11-07 18:15:00
1:35 PM,35.6,32.0,87,29.78,-9999.0,NNE,17.3,32.2,0.11,,Unknown,20,2012-11-07 18:35:00
1:55 PM,35.6,32.0,87,29.77,-9999.0,NNE,17.3,27.6,0.21,Snow,Light Snow,30,2012-11-07 18:55:00
2:15 PM,33.8,32.0,93,29.77,-9999.0,NNE,18.4,27.6,0.22,,Overcast,20,2012-11-07 19:15:00
2:35 PM,33.8,32.0,93,29.78,-9999.0,NNE,16.1,25.3,0.73,,Overcast,20,2012-11-07 19:35:00
2:55 PM,33.8,32.0,93,29.78,-9999.0,NNE,18.4,28.8,1.48,Snow,Snow,20,2012-11-07 19:55:00
3:35 PM,32.0,32.0,100,29.77,-9999.0,NNE,17.3,31.1,2.44,,Overcast,30,2012-11-07 20:35:00
3:55 PM,32.0,32.0,100,29.76,-9999.0,NNE,20.7,36.8,5.34,,Overcast,20,2012-11-07 20:55:00
4:15 PM,32.0,32.0,100,29.74,-9999.0,NNE,17.3,31.1,2.64,,Overcast,30,2012-11-07 21:15:00
4:35 PM,32.0,32.0,100,29.74,-9999.0,NNE,15.0,28.8,6.48,Snow,Heavy Snow,20,2012-11-07 21:35:00
4:55 PM,32.0,32.0,100,29.74,-9999.0,NNE,20.7,33.4,1.13,Snow,Heavy Snow,30,2012-11-07 21:55:00
5:35 PM,32.0,32.0,100,29.75,-9999.0,NNE,20.7,29.9,0.57,Snow,Heavy Snow,20,2012-11-07 22:35:00
5:55 PM,32.0,32.0,100,29.75,-9999.0,NNE,17.3,35.7,6.39,Snow,Heavy Snow,20,2012-11-07 22:55:00
6:15 PM,32.0,32.0,100,29.75,-9999.0,NNE,23.0,35.7,0.80,Snow,Snow,20,2012-11-07 23:15:00
6:35 PM,32.0,32.0,100,29.74,-9999.0,NNE,21.9,32.2,2.30,Snow,Snow,30,2012-11-07 23:35:00
6:55 PM,32.0,32.0,100,29.73,-9999.0,NNE,21.9,29.9,3.41,Snow,Snow,30,2012-11-07 23:55:00
7:15 PM,32.0,32.0,100,29.72,-9999.0,NNE,21.9,34.5,0.98,Snow,Snow,20,2012-11-08 00:15:00
7:35 PM,32.0,32.0,100,29.73,-9999.0,NNE,15.0,34.5,1.77,Snow,Snow,20,2012-11-08 00:35:00
7:55 PM,32.0,32.0,100,29.72,-9999.0,NNE,21.9,32.2,2.44,Snow,Light Snow,30,2012-11-08 00:55:00
8:15 PM,32.0,30.2,93,29.71,-9999.0,North,19.6,36.8,0.26,Snow,Light Snow,10,2012-11-08 01:15:00
8:35 PM,32.0,30.2,93,29.70,-9999.0,NNE,20.7,35.7,0.55,Snow,Light Snow,30,2012-11-08 01:35:00
8:55 PM,32.0,30.2,93,29.69,-9999.0,North,23.0,31.1,0.79,Snow,Light Snow,10,2012-11-08 01:55:00
9:15 PM,32.0,30.2,93,29.68,-9999.0,NNE,24.2,33.4,0.08,Snow,Light Snow,20,2012-11-08 02:15:00
9:35 PM,32.0,30.2,93,29.68,-9999.0,NNE,21.9,34.5,0.19,Snow,Light Snow,20,2012-11-08 02:35:00
9:55 PM,32.0,30.2,93,29.67,-9999.0,North,20.7,31.1,0.32,Snow,Light Snow,10,2012-11-08 02:55:00
10:15 PM,32.0,30.2,93,29.66,-9999.0,North,21.9,35.7,0.18,Snow,Snow,10,2012-11-08 03:15:00
10:35 PM,32.0,30.2,93,29.66,-9999.0,NNE,24.2,33.4,0.92,Snow,Snow,20,2012-11-08 03:35:00
10:55 PM,32.0,30.2,93,29.66,-9999.0,North,24.2,36.8,1.25,Snow,Light Snow,10,2012-11-08 03:55:00
11:15 PM,32.0,30.2,93,29.65,-9999.0,North,24.2,35.7,0.18,Snow,Light Snow,10,2012-11-08 04:15:00
11:35 PM,32.0,30.2,93,29.65,-9999.0,North,23.0,38.0,0.58,Snow,Light Snow,10,2012-11-08 04:35:00
11:55 PM,32.0,30.2,93,29.65,-9999.0,North,23.0,31.1,0.80,Snow,Light Snow,360,2012-11-08 04:55:00